Vertical_Velocity
13 6 1 -1 6 3 3 7 6 4 -0 4 1 0 3 0 3 -4 3 0 4 4 1 4 -0 -1 1 0 -0 1 0 0 0 -1 -0 1 2 -0 0 -1 -1 -1 -1
1 3 3 3 -1 2 5 -6 -0 6 0 1 2 -4 2 6 5 4 -6 1 4 2 12 -0 0 1 1 3 2 -1 -0 -0 1 0 -0 0 2 2 1 1 -1 -0 -1
-2 -4 -2 -2 -0 -1 5 3 6 4 4 2 -1 3 15 4 4 -4 -2 -6 -4 10 8 -0 -0 0 3 2 1 2 -2 -2 1 2 1 1 0 0 1 2 1 0 -1
1 1 2 1 3 3 -2 1 2 0 5 6 2 3 0 2 -1 0 8 7 -3 12 9 4 -1 6 2 2 1 0 -2 13 -3 -0 0 -1 1 -0 -3 1 0 -1 -1
-2 -1 -0 1 1 -1 -0 -1 -2 -1 6 3 2 6 -3 5 5 -1 2 1 5 9 10 5 0 6 1 1 3 -0 1 1 -0 2 1 0 -2 -1 -2 -2 -1 -2 -2
-1 -1 -3 1 3 3 1 4 5 0 -5 2 3 5 3 5 1 3 -1 -0 3 5 5 6 4 4 2 2 4 1 1 6 3 1 0 0 1 2 0 -1 0 2 6
-2 -2 0 -0 -3 -5 -1 -1 -4 1 7 2 -6 5 3 4 6 4 5 5 -6 -1 0 3 2 2 6 3 2 2 -1 7 -3 -1 1 1 3 1 1 0 -3 -5 2
-2 1 7 6 6 7 5 2 -3 -4 -0 -1 6 -2 4 5 6 3 4 -2 3 2 7 3 3 4 5 2 3 0 1 7 -1 -0 2 -0 0 1 1 -0 -2 -3 -0
1 -3 -3 4 3 4 4 2 -4 -3 -6 -2 0 -2 6 9 5 -2 2 -0 2 5 1 4 2 4 5 3 -0 5 -15 -5 5 -6 1 2 2 0 -2 -2 -2 -5 -9
1 1 2 -0 1 0 -2 1 2 -0 -4 -7 -4 -2 7 1 6 -2 3 3 5 -0 5 4 3 3 5 4 0 -5 9 8 4 1 3 3 1 1 -0 -0 -2 -3 -5
-6 -5 2 -6 1 2 -1 -2 -4 -5 -7 -5 -8 5 -4 -3 9 8 0 3 5 2 1 7 2 4 4 -3 3 1 11 1 5 3 1 1 1 -1 -2 -0 -3 -2 -6
-10 -3 -0 1 5 -2 -11 6 -6 -3 -5 -3 -4 7 7 -7 5 11 3 3 2 3 2 2 1 3 0 -8 -6 -4 2 2 4 1 3 -0 0 -1 -1 -3 -2 -1 -5
-10 -7 2 1 6 3 -1 2 -0 -4 -3 -1 1 10 9 2 -4 10 11 -1 2 5 3 -1 1 2 -7 2 -8 9 4 3 2 -7 -1 1 1 -1 -2 -3 -0 -0 0
-4 -1 2 1 -4 6 -6 -1 -2 2 -6 -4 4 2 8 11 -1 11 7 1 -2 2 0 1 2 2 26 -0 7 -1 3 -1 9 4 -1 -2 -2 -1 -1 1 -0 -0 0
-1 2 2 -6 1 5 -2 -8 -3 -3 -10 -3 12 10 6 4 -11 9 1 0 0 2 3 1 2 -10 1 9 13 9 15 -4 -2 1 -4 -1 0 2 1 -1 -0 -1 -1
-3 2 -2 -3 1 -3 -3 -2 -3 -3 2 16 17 3 7 4 13 -3 8 4 -1 6 -8 8 10 12 10 2 4 -3 -1 -2 -2 1 -3 -2 0 -1 0 0 -1 -2 -4
-1 -4 -2 -2 -3 -1 2 0 -1 -3 4 7 -1 -6 7 -10 6 6 6 -1 5 -0 -3 5 9 7 -4 9 0 2 -2 -2 -2 -1 -1 -0 -1 -1 0 -1 -1 1 3
-2 -1 1 2 0 1 -1 -3 2 4 3 8 16 28 4 -6 4 9 3 7 8 6 6 -4 11 3 5 3 -3 -7 -4 -4 -2 2 0 -0 1 -1 -2 1 1 3 3
-0 -1 1 2 1 3 2 -6 -0 3 8 14 8 1 2 4 11 13 9 6 3 -8 10 1 4 -1 -0 -0 -3 -3 -1 -1 2 -1 -3 -0 -0 -3 3 -2 -3 3 5
-0 3 2 1 -1 1 -1 -0 -4 -4 -0 -4 -3 7 -0 4 2 1 1 5 -5 -6 0 1 -4 -3 -2 0 -3 4 -5 -6 1 -1 -3 -1 -1 1 2 -1 -2 -2 -1
-1 0 0 3 2 2 -1 0 -2 -2 -2 -12 -1 1 2 1 2 3 0 -0 -1 -0 -3 1 1 -2 -2 -3 -1 -1 -2 0 3 4 4 1 0 1 -0 -2 -2 -2 -3
-1 0 0 -1 -3 3 -1 -2 -0 -7 -1 3 6 3 3 5 5 -0 -6 -2 -0 2 2 0 -3 -3 -2 0 -2 -4 1 1 -1 -2 -0 -1 -1 0 -0 -1 -2 -1 -2
-0 -1 -1 2 -4 -3 1 4 -3 3 3 1 -0 -2 1 0 0 2 -1 -5 -2 -3 -3 -3 -2 -3 -0 -0 1 4 -1 -3 -3 -2 0 -2 -1 -1 1 -0 -2 -3 -2
-1 -2 0 1 -1 -3 -2 -1 -0 -2 -3 -1 -0 1 3 0 -1 0 -0 -2 -3 0 -0 -2 -2 1 3 2 -1 -4 -2 -2 -1 1 -0 1 -1 -4 -5 -1 -3 -1 -1
0 -2 -2 2 2 -1 -3 -1 -2 -2 -2 -0 -0 1 -1 -2 -3 -3 -2 1 1 -1 -1 -1 1 1 -2 -3 -2 -1 -0 -1 2 -1 -2 -1 -2 -1 -0 -1 -2 -1 -1
-1 -0 -3 -3 -3 -3 -4 -4 -3 0 -0 -1 -1 -4 -4 -1 0 0 -0 1 0 -1 -1 0 -0 -1 -1 0 1 -1 -2 0 -0 -2 -1 -2 -1 -1 1 -0 1 -2 -1
Height
3084 3083 3085 3088 3090 3092 3097 3100 3102 3103 3105 3106 3108 3111 3115 3117 3119 3122 3126 3128 3128 3129 3129 3130 3130 3131 3131 3130 3130 3130 3129 3129 3129 3129 3128 3126 3125 3124 3123 3121 3120 3118 3116
3072 3074 3077 3079 3080 3083 3085 3089 3092 3097 3096 3099 3101 3102 3108 3110 3112 3114 3117 3121 3122 3123 3125 3125 3125 3125 3126 3126 3125 3125 3125 3125 3125 3124 3123 3122 3122 3119 3118 3116 3115 3113 3111
3064 3066 3068 3070 3072 3074 3077 3079 3083 3086 3089 3090 3093 3094 3097 3099 3102 3106 3108 3111 3115 3117 3119 3119 3120 3120 3120 3120 3120 3120 3120 3121 3120 3119 3118 3117 3116 3115 3113 3111 3109 3107 3104
3058 3059 3061 3061 3062 3064 3067 3069 3073 3075 3079 3082 3081 3086 3088 3088 3093 3099 3102 3104 3108 3110 3112 3113 3114 3114 3114 3114 3115 3115 3114 3113 3115 3114 3112 3111 3110 3108 3107 3105 3103 3100 3097
3053 3054 3053 3054 3054 3054 3056 3059 3062 3066 3069 3071 3072 3076 3079 3082 3085 3089 3093 3097 3099 3102 3105 3107 3108 3108 3108 3108 3109 3109 3108 3109 3108 3107 3106 3105 3104 3102 3100 3099 3096 3094 3090
3048 3047 3046 3047 3048 3049 3050 3052 3054 3056 3058 3061 3061 3064 3068 3071 3077 3080 3084 3088 3092 3095 3097 3100 3101 3102 3101 3101 3102 3102 3102 3103 3101 3100 3099 3097 3097 3095 3093 3091 3089 3087 3085
3042 3041 3041 3041 3042 3043 3044 3045 3046 3047 3050 3051 3052 3054 3055 3061 3067 3072 3076 3080 3084 3087 3089 3091 3093 3094 3094 3094 3094 3094 3095 3094 3095 3091 3092 3090 3089 3087 3085 3082 3079 3076 3076
3037 3037 3037 3037 3037 3038 3038 3037 3037 3038 3040 3041 3043 3044 3046 3050 3055 3062 3068 3072 3074 3078 3081 3083 3085 3086 3087 3086 3086 3087 3087 3088 3086 3085 3083 3082 3080 3078 3075 3072 3069 3065 3062
3032 3031 3031 3031 3031 3030 3029 3027 3027 3027 3029 3032 3032 3033 3036 3040 3047 3053 3059 3061 3065 3069 3071 3074 3076 3078 3079 3078 3078 3079 3079 3079 3078 3079 3076 3074 3073 3070 3067 3064 3060 3055 3048
3024 3022 3022 3023 3022 3022 3021 3020 3018 3017 3018 3019 3021 3023 3025 3032 3039 3042 3047 3051 3056 3060 3063 3066 3069 3069 3070 3070 3070 3071 3069 3069 3070 3069 3067 3066 3064 3061 3058 3054 3050 3045 3038
3013 3012 3010 3011 3012 3012 3011 3010 3010 3010 3010 3010 3012 3013 3016 3021 3028 3032 3037 3043 3047 3051 3054 3058 3059 3061 3061 3061 3063 3062 3060 3062 3061 3061 3059 3058 3055 3052 3049 3044 3040 3035 3029
3001 2997 2996 2997 3002 3003 3003 3003 3002 3002 3002 3003 3004 3005 3008 3012 3018 3025 3029 3035 3038 3042 3045 3048 3049 3051 3053 3054 3053 3053 3052 3051 3052 3051 3051 3049 3047 3043 3040 3035 3030 3024 3019
2987 2983 2983 2987 2992 2994 2994 2996 2994 2994 2994 2994 2995 2997 2999 3004 3011 3018 3021 3026 3030 3034 3036 3039 3041 3043 3043 3044 3044 3045 3043 3043 3042 3040 3038 3038 3036 3033 3029 3024 3019 3013 3007
2978 2975 2975 2979 2983 2988 2988 2988 2988 2986 2987 2988 2989 2992 2994 2998 3005 3009 3012 3018 3022 3026 3029 3032 3034 3033 3031 3036 3028 3035 3035 3036 3035 3033 3032 3030 3026 3023 3018 3013 3007 3001 2996
2974 2973 2972 2974 2979 2982 2981 2981 2979 2979 2980 2982 2983 2986 2988 2992 2998 3001 3005 3011 3017 3020 3023 3025 3024 3027 3027 3030 3028 3029 3025 3028 3028 3027 3024 3020 3016 3012 3006 3001 2995 2989 2982
2971 2971 2972 2974 2976 2977 2977 2973 2971 2973 2975 2976 2979 2982 2985 2988 2990 2998 3002 3008 3012 3015 3017 3018 3018 3017 3020 3023 3024 3024 3024 3022 3021 3018 3015 3010 3006 3002 2996 2991 2984 2977 2970
2967 2967 2969 2972 2974 2973 2971 2969 2969 2970 2971 2974 2977 2980 2982 2988 2992 2996 2999 3002 3006 3008 3011 3014 3015 3016 3017 3019 3019 3017 3015 3015 3013 3010 3005 3003 2998 2992 2986 2980 2973 2966 2960
2965 2964 2967 2969 2969 2968 2968 2967 2967 2969 2970 2971 2972 2975 2981 2986 2989 2992 2995 2998 2999 3002 3007 3005 3010 3013 3015 3014 3013 3011 3010 3008 3004 3001 2998 2993 2988 2982 2975 2968 2960 2952 2946
2965 2964 2966 2967 2967 2966 2965 2966 2967 2968 2968 2969 2972 2977 2980 2984 2985 2988 2991 2993 2999 2999 3003 3004 3009 3010 3009 3008 3006 3004 3002 2999 2997 2994 2987 2982 2977 2971 2963 2954 2946 2940 2936
2967 2965 2965 2966 2966 2965 2964 2965 2966 2968 2968 2970 2973 2974 2977 2981 2984 2988 2991 2994 2998 3001 3003 3005 3004 3004 3004 3002 3001 2997 2996 2994 2989 2983 2979 2973 2965 2958 2951 2943 2935 2929 2924
2969 2967 2965 2964 2965 2965 2965 2967 2968 2969 2969 2973 2973 2975 2975 2983 2987 2990 2993 2996 2998 2999 2999 3000 3002 3002 2999 2996 2994 2993 2988 2984 2981 2977 2971 2963 2955 2947 2939 2932 2925 2919 2914
2973 2971 2969 2969 2968 2968 2968 2970 2971 2970 2971 2972 2976 2980 2983 2988 2990 2991 2993 2995 2994 2995 2998 2999 2997 2995 2994 2992 2988 2983 2979 2976 2970 2963 2957 2949 2942 2935 2929 2923 2917 2911 2907
2979 2975 2972 2971 2971 2971 2972 2974 2976 2977 2979 2980 2982 2986 2988 2991 2991 2993 2994 2995 2995 2995 2996 2995 2993 2990 2987 2983 2980 2977 2972 2965 2957 2951 2944 2935 2929 2924 2919 2913 2908 2904 2901
2986 2983 2981 2980 2979 2979 2980 2982 2982 2982 2983 2986 2987 2990 2991 2990 2992 2993 2994 2993 2993 2992 2991 2989 2986 2984 2981 2978 2974 2968 2961 2954 2947 2940 2932 2926 2921 2916 2911 2906 2903 2899 2896
2990 2988 2987 2986 2986 2985 2984 2985 2985 2986 2987 2989 2990 2992 2991 2991 2992 2991 2991 2992 2991 2990 2987 2985 2983 2980 2975 2969 2963 2958 2951 2942 2935 2929 2923 2917 2913 2909 2905 2902 2900 2897 2893
2993 2992 2991 2990 2989 2988 2988 2988 2988 2989 2990 2990 2991 2990 2990 2990 2991 2992 2991 2989 2987 2986 2984 2981 2976 2972 2967 2961 2954 2947 2939 2932 2926 2920 2914 2910 2906 2904 2902 2900 2897 2894 2890